STARLINK-34181, 64144

Orbit data source: Space-Track

STARLINK-34181, 64144 is a payload satellite owned by SpaceX/Seattle (US) in LEO that was launched on Sat, 24 May 2025 UTC via an FALCON 9 launch vehicle from the Air Force Eastern Test Range (AFETR). Payload-class satellites include a variety of spacecraft equipped with specific instruments for various scientific and technological missions. These include communications satellites like Starlink; space stations such as the ISS; scientific satellites like the Hubble; Earth observation satellites from companies like Planet Labs, Umbra, and HawkEye 360; GPS; miniature CubeSats for education and research; and military/defense satellites.

Loading next visibility...
Identifier
64144, 2025-111X
Orbit
LEO
Country
Flag of USUS
Related business
Manufacturer
SpaceX/Seattle
Mission
Operational Commercial Communications
Bus & Motor
STARLINK V2MO, Unknown motor
Mass
575 kg wet, ~530 kg dry
Launch date (UTC)
2025-05-24 (1 year ago)
Launch vehicle
FALCON 9
Launch site
Air Force Eastern Test Range (AFETR)
Object type
Payload
Rocket body
Debris
Shape & HBR
Box + 2 Pan, 17.7 m
Radar Cross Section
36.964 m², Large (>1 m²)

Expand to show TLE details & history
Last TLE update: 10 hours ago

TLE from 10 hours ago
0 STARLINK-34181
1 64144U 25111X   26171.41426014  .00012450  00000-0  46111-3 0  9996
2 64144  42.9995 217.7455 0001233 274.9735  85.0976 15.27585255 61171
Epoch: 2026-06-20T09:56Z
TLE epoch observation values (Epoch: 2026-06-20T09:56:32.076Z)
Latitude
0.00001°
Longitude
159.98263°
Altitude
482.737 km
Speed
7.626 km/s
True Right ascension
14h 30m 58s
True Declination
0° 00' 00"
Sunlit
Object was in full shadow at epoch
Visualization orbit readout
Latitude
Unknown
Longitude
Unknown
Altitude
Unknown
Speed
Unknown
Apparent Right ascension
Unknown
Apparent Declination
Unknown
Sunlit
N/A
Visualization observer readout
Local Sidereal Time
07:15:03
Azimuth
Unknown
Elevation
Unknown
Doppler factor
Unknown
Orbital elements
Apogee altitude
485.825 km
Perigee altitude
484.132 km
Semi-major axis
6,863.116 km
Eccentricity
0.00012
Inclination
42.9995°
RAAN
217.7455°
Arg. of periapsis
274.9735°
True anomaly
85.11168°
Mean anomaly
85.0976°
Eccentric anomaly
85.10464°
Mean motion
3.81734 °/min
Orbital period
94.31 mins
BSTAR
0.00046111
Loading maneuver chart data...
Computing Atmospheric mass density...
Loading historical data...
Loading historical data...
Loading historical data...
Loading historical data...
Loading historical data...
Loading historical data...
Loading historical data...

Documentation

Showing up to 5 results
|